Zurück zum Katalog

STARLINK-36129

AktivKommunikationVLEO
NORAD 66874·PAYLOAD·🇺🇸 United States

Gestartet Dec 2, 2025 von Cape Canaveral Space Force Station

Loading…

Nächste Überflüge (nächste 24 Stunden)

TLE

AktuellSource: CelesTrak SupGP

Epoche: Sep 15, 2026, 02:41 UTC

1 66874C 25281AC  26258.11229167  .00039197  00000+0  14193-2 0  2587
2 66874  43.0028 353.7249 0001534 265.5518 146.5102 15.27567571    14

Verfolge STARLINK-36129 in Echtzeit mit AllMySat

Download on the App Store